DIAMANT B-P4 DEB

Satellite information

Favourite Embed

Satellite Type and Status

DEBRISIN ORBIT

Key statistics

Satellite DIAMANT B-P4 DEB at a glance.

Uptime

18477

Days in orbit

Revolutions

≈ 13.9

Per day

Orbit

LEO

Low Earth Orbit

Inclination

49.8

Latest

Satellite identification and parameters

Extended collection of information and parameters for DIAMANT B-P4 DEB.

Object identification

Identified? True

Debris? True

Object name: DIAMANT B-P4 DEB

International designator: 1975-010E

Object number (NORAD): 7659

Object ID (CCSDS): 7659

Country: FRANCE (FR)

Current information (Y/N): Y

RCS size: MEDIUM

Orbital parameters

Period: 103.312 minutes

Inclination: 49.8134 deg

SMA: 7293.332 km

Apoapsis: 1050.567 km

Periapsis: 779.828 km

RAAN: 145.8983 deg

Eccentricy: 0.01856067

Argument of periapsis: 100.5539 deg

Mean anomaly: 261.6325 deg

Mean motion: 13.93842632 rev/day

Mean motion (dot): 0.00000467 rev/day2

B* drag term: 0.00040327969 1/REarth

Two-line elements (TLE)

Creation date: Sept. 8, 2025, 3:16 a.m.

Reference frame: TEME

Reference center: EARTH

Epoch: Sept. 7, 2025, 8:30 a.m. UTC

TLE line 0: 0 DIAMANT B-P4 DEB

TLE line 1: 1 07659U 75010E 25250.35473988 .00000467 00000-0 40328-3 0 9998

TLE line 2: 2 07659 49.8134 145.8983 0185607 100.5539 261.6325 13.93842632565895

Live tracking on map

Real-time ground track for satellite DIAMANT B-P4 DEB.

In-orbit conjunctions

A list of the most updated potential collisions computed for object DIAMANT B-P4 DEB.

Target Orbit TCA Probability of collision Miss distance Type
CZ-6A DEB LEO 2025-08-04 07:21:05 0.0001022407 361.0 (m) DEBRIS

Associated space launch

Passive French satellite dedicated to geodetic and geophysical studies

DIAMANT B-P4 DEB was lifted into orbit during the mission ‘Diamant BP4 | Starlette’, on board a Diamant BP4 space rocket.

The launch took place on Feb. 6, 1975, 4:35 p.m. from Diamant Launch Area.

For more information about the launch, click the button.

Launch to space Diamant BP4 | Starlette
Diamant BP4 | Starlette

Agency: N/A

Status: Launch Successful

Launch date: Feb. 6, 1975, 4:35 p.m. UTC

Rocket: Diamant BP4

Launch pad: Diamant Launch Area

Location: Guiana Space Centre, French Guiana

...

Latest news about this satellite

There are no fresh news available about this satellite. Check back as we update our databases every day.


Newsletter sign-up

Weekly statistics, charts and insights to help you stay on top of the space industry.